Regional Weather Roundup
Issued by NWS Northern Indiana

Home | Current Version | Previous Version | Graphics & Text | Print | Product List | Glossary On
Versions: 1 2 3 4 5 6 7 8 9 10 11 12 13 14 15 16 17 18 19 20 21 22 23 24 25 26 27 28 29 30 31 32 33 34 35 36 37 38 39 40 41 42 43 44 45 46 47 48 49 50
000
ASUS43 KIWX 232100
RWRIWX

KIWX WEATHER ROUNDUP
NATIONAL WEATHER SERVICE NORTHERN INDIANA
400 PM EST THU FEB 23 2017

NOTE: "FAIR" INDICATES FEW OR NO CLOUDS BELOW 12,000 FEET WITH NO
SIGNIFICANT WEATHER AND/OR OBSTRUCTIONS TO VISIBILITY.

* THESE STATIONS ARE NOT UNDER NWS QUALITY CONTROL. THEY ALSO MAY NOT
  REPORT WEATHER SUCH AS PRECIPITATION OR FOG.

INZ001>027-232200-
NORTHERN INDIANA

CITY           SKY/WX    TMP DP  RH WIND       PRES   REMARKS
GARY*          CLOUDY    41  37  87 N12G23    29.82S
MICHIGAN CITY* CLOUDY    37  36  93 N9        29.82S
KNOX*          CLOUDY    48  25  40 N13       29.77F
SOUTH BEND     CLOUDY    46  39  76 N9        29.79F
ELKHART*       SUNNY     48  41  76 N5        29.79S
GOSHEN         CLOUDY    53  42  66 N9        29.77S
ANGOLA*        SUNNY     59  48  67 N6        29.76S
FORT WAYNE     CLOUDY    64  52  64 S6        29.75S
PERU/GRISSOM   CLOUDY    62  55  77 SW3       29.74R

$$
INZ028>050-232200-
CENTRAL INDIANA

CITY           SKY/WX    TMP DP  RH WIND       PRES   REMARKS
LAFAYETTE      PTSUNNY   61  54  77 NE6       29.72F
KOKOMO*        CLOUDY    61  55  81 CALM      29.76S
MUNCIE*        CLOUDY    64  55  72 NW5       29.75R
INDIANAPOLIS   CLOUDY    68  54  60 W7        29.72R

$$
MIZ043>046-050>051-056>058-064>065-071>073-077>080-232200-
SOUTHWEST LOWER MICHIGAN

CITY           SKY/WX    TMP DP  RH WIND       PRES   REMARKS
BATTLE CREEK   CLOUDY    52  43  71 N6        29.79F
BENTON HARBOR  CLOUDY    40  36  86 N8        29.80F
COLDWATER*     CLOUDY    55  44  67 NW5       29.77F
HILLSDALE*     CLOUDY    57  43  58 NW6       29.76S
HOLLAND        CLOUDY    44  36  73 VRB5      29.80F
GRAND RAPIDS   CLOUDY    50  38  63 N3        29.80F
KALAMAZOO      PTSUNNY   50  39  66 NE8       29.79F
STURGIS*       CLOUDY    51  44  75 N7        29.76F
THREE RIVERS*  FAIR      50  41  72 N7        29.79S

$$
OHZ001>008-015>018-024>025-232200-
NORTHWEST OHIO

CITY           SKY/WX    TMP DP  RH WIND       PRES   REMARKS
DEFIANCE       CLOUDY    65  45  48 W5        29.76R
FINDLAY        PTSUNNY   65  53  65 W10       29.75R
TOLEDO EXPRESS PTSUNNY   66  46  48 NW9       29.75R
TOLEDO METCALF MOSUNNY   68  47  46 W8        29.76R
LIMA           CLOUDY    65  56  72 W9        29.76R

$$
AND FOR LAKE MICHIGAN COASTAL AND OPEN LAKE BUOY OBSERVATIONS

STATION/POSITION TEMP    WIND        PRES    VSBY  WAVE
                 AIR SEA DIR/SP/G                  HT/PER
                 (F)     (DEG/KT/KT) (MB)    (MI)  (FT/S)
CALUMET HARBOR    39      10/ 10/ 12 1009.7R
MICHIGAN CITY     36      20/ 12/ 13   N/A
BURNS HARBOR      38      50/  6/ 10 1010.8R
SAINT JOSEPH      38      20/ 10/ 13 1010.2

$$
&&




USA.gov is the U.S. government's official web portal to all federal, state and local government web resources and services.